Location: Mahannah Oil Field
(37.4664°N, 96.6003°W)
Time: 01:17:38
(UTC+00:00)

deb Explorer IX - Pass Details

Date: 24 January 2021
Orbit: 537 x 1102 km, 38.8° (Epoch: 25 February)

Event Time Altitude Azimuth Distance (km) Brightness Sun altitude
Rises 01:13:15 0° 258° (WSW) 3,662 ? -18.3°
Reaches altitude 10° 01:16:04 10° 258° (WSW) 2,633 ? -18.8°
Maximum altitude 01:22:22 89° 351° (N) 829 ? -20.0°
Enters shadow 01:24:21 42° 78° (ENE) 1,120 ? -20.4°
Drops below altitude 10° 01:27:39 10° 79° (E) 2,232 - -21.1°
Sets 01:29:53 0° 79° (E) 3,070 - -21.5°
